Hourly Weather el Prat de Llobregat

Today, 24 September, Thursday

Time Temperature Precipitation Wind Pressure Humidity
00:00 +26°C° 0 mm 4 mps 758 mmHg 57%
01:00 +26°C° 0.1 mm 4 mps 758 mmHg 56%
02:00 +26°C° 0.1 mm 4 mps 758 mmHg 55%
03:00 +25°C° 0.1 mm 3 mps 757 mmHg 53%
04:00 +25°C° 0 mm 3 mps 757 mmHg 55%
05:00 +25°C° 0 mm 3 mps 757 mmHg 57%
06:00 +24°C° 0 mm 2 mps 757 mmHg 57%
07:00 +25°C° 0 mm 2 mps 758 mmHg 54%
08:00 +26°C° 0 mm 2 mps 758 mmHg 51%
09:00 +27°C° 0 mm 2 mps 758 mmHg 47%
10:00 +28°C° 0 mm 3 mps 758 mmHg 44%
11:00 +29°C° 0 mm 5 mps 757 mmHg 41%
12:00 +30°C° 0 mm 5 mps 757 mmHg 39%
13:00 +30°C° 0.1 mm 6 mps 757 mmHg 42%
14:00 +29°C° 0.1 mm 8 mps 756 mmHg 45%
15:00 +28°C° 0.1 mm 9 mps 756 mmHg 48%
16:00 +28°C° 0 mm 9 mps 756 mmHg 49%
17:00 +27°C° 0 mm 8 mps 756 mmHg 50%
18:00 +27°C° 0 mm 7 mps 756 mmHg 51%
19:00 +27°C° 0 mm 7 mps 756 mmHg 47%
20:00 +27°C° 0 mm 6 mps 756 mmHg 43%
21:00 +26°C° 0 mm 6 mps 756 mmHg 39%
22:00 +26°C° 0 mm 7 mps 756 mmHg 38%
23:00 +24°C° 0 mm 8 mps 756 mmHg 38%

Tomorrow, 25 September, Friday

Time Temperature Precipitation Wind Pressure Humidity
00:00 +24°C° 0 mm 9 mps 756 mmHg 37%
01:00 +23°C° 0 mm 9 mps 756 mmHg 38%
02:00 +22°C° 0 mm 9 mps 756 mmHg 39%
03:00 +22°C° 0 mm 10 mps 756 mmHg 40%
04:00 +21°C° 0 mm 10 mps 757 mmHg 41%
05:00 +19°C° 0 mm 11 mps 757 mmHg 42%
06:00 +18°C° 0 mm 12 mps 757 mmHg 42%
07:00 +18°C° 0 mm 12 mps 757 mmHg 42%
08:00 +19°C° 0 mm 12 mps 758 mmHg 42%
09:00 +19°C° 0 mm 13 mps 758 mmHg 41%
10:00 +21°C° 0 mm 12 mps 758 mmHg 38%
11:00 +22°C° 0 mm 11 mps 758 mmHg 34%
12:00 +23°C° 0 mm 11 mps 758 mmHg 31%
13:00 +23°C° 0 mm 11 mps 758 mmHg 30%
14:00 +23°C° 0 mm 12 mps 758 mmHg 29%
15:00 +23°C° 0 mm 12 mps 758 mmHg 28%
16:00 +20°C° 0 mm 13 mps 758 mmHg 34%
17:00 +19°C° 0 mm 13 mps 759 mmHg 39%
18:00 +17°C° 0 mm 13 mps 759 mmHg 44%
19:00 +17°C° 0 mm 12 mps 759 mmHg 45%
20:00 +17°C° 0 mm 12 mps 760 mmHg 45%
21:00 +16°C° 0 mm 11 mps 760 mmHg 46%
22:00 +16°C° 0 mm 10 mps 761 mmHg 48%
23:00 +15°C° 0 mm 9 mps 761 mmHg 49%

Day after tomorrow, 26 September, Saturday

Time Temperature Precipitation Wind Pressure Humidity
00:00 +15°C° 0 mm 8 mps 761 mmHg 50%
01:00 +15°C° 0 mm 7 mps 760 mmHg 51%
02:00 +15°C° 0 mm 6 mps 760 mmHg 52%
03:00 +14°C° 0 mm 6 mps 760 mmHg 53%
04:00 +14°C° 0 mm 5 mps 760 mmHg 53%
05:00 +14°C° 0 mm 4 mps 760 mmHg 53%
06:00 +14°C° 0 mm 3 mps 760 mmHg 53%
07:00 +16°C° 0 mm 3 mps 760 mmHg 49%
08:00 +17°C° 0 mm 3 mps 760 mmHg 46%
09:00 +18°C° 0 mm 4 mps 760 mmHg 42%
10:00 +20°C° 0 mm 4 mps 760 mmHg 38%
11:00 +21°C° 0 mm 4 mps 759 mmHg 34%
12:00 +22°C° 0 mm 4 mps 759 mmHg 29%
13:00 +23°C° 0 mm 4 mps 759 mmHg 28%
14:00 +23°C° 0 mm 4 mps 758 mmHg 27%
15:00 +25°C° 0 mm 5 mps 758 mmHg 26%
16:00 +23°C° 0 mm 5 mps 758 mmHg 30%
17:00 +23°C° 0 mm 5 mps 757 mmHg 34%
18:00 +22°C° 0 mm 5 mps 757 mmHg 38%
19:00 +21°C° 0 mm 5 mps 757 mmHg 43%
20:00 +20°C° 0 mm 5 mps 757 mmHg 49%
21:00 +19°C° 0 mm 6 mps 758 mmHg 54%
22:00 +19°C° 0 mm 6 mps 757 mmHg 56%
23:00 +17°C° 0 mm 5 mps 757 mmHg 58%

27 September, Sunday

Time Temperature Precipitation Wind Pressure Humidity
00:00 +17°C° 0 mm 5 mps 756 mmHg 60%
01:00 +18°C° 0 mm 4 mps 756 mmHg 61%
02:00 +18°C° 0 mm 4 mps 756 mmHg 62%
03:00 +17°C° 0 mm 3 mps 755 mmHg 63%
04:00 +17°C° 0 mm 3 mps 755 mmHg 65%
05:00 +17°C° 0 mm 3 mps 756 mmHg 66%
06:00 +17°C° 0 mm 3 mps 756 mmHg 68%
07:00 +17°C° 1.4 mm 3 mps 756 mmHg 67%
08:00 +17°C° 1.4 mm 3 mps 756 mmHg 67%
09:00 +17°C° 1.4 mm 3 mps 756 mmHg 66%
10:00 +19°C° 0.4 mm 3 mps 756 mmHg 60%
11:00 +21°C° 0.4 mm 3 mps 756 mmHg 53%
12:00 +22°C° 0.4 mm 4 mps 756 mmHg 46%
13:00 +22°C° 0.1 mm 4 mps 756 mmHg 51%
14:00 +21°C° 0.1 mm 5 mps 756 mmHg 56%
15:00 +21°C° 0.1 mm 6 mps 756 mmHg 61%
16:00 +20°C° 0 mm 5 mps 757 mmHg 64%
17:00 +20°C° 0 mm 5 mps 757 mmHg 66%
18:00 +20°C° 0 mm 5 mps 758 mmHg 69%
19:00 +20°C° 0.2 mm 6 mps 758 mmHg 70%
20:00 +20°C° 0.2 mm 6 mps 759 mmHg 70%
21:00 +19°C° 0.2 mm 6 mps 760 mmHg 71%
22:00 +19°C° 0.3 mm 6 mps 760 mmHg 70%
23:00 +20°C° 0.3 mm 6 mps 760 mmHg 70%

28 September, Monday

Time Temperature Precipitation Wind Pressure Humidity
00:00 +20°C° 0.3 mm 6 mps 760 mmHg 70%
01:00 +19°C° 0.4 mm 5 mps 760 mmHg 67%
02:00 +19°C° 0.4 mm 4 mps 760 mmHg 64%
03:00 +18°C° 0.4 mm 4 mps 760 mmHg 61%
04:00 +18°C° 0.2 mm 3 mps 760 mmHg 61%
05:00 +18°C° 0.2 mm 3 mps 760 mmHg 60%
06:00 +17°C° 0.2 mm 3 mps 761 mmHg 60%
07:00 +18°C° 0.1 mm 3 mps 761 mmHg 57%
08:00 +19°C° 0.1 mm 3 mps 761 mmHg 55%
09:00 +20°C° 0.1 mm 3 mps 761 mmHg 52%
10:00 +21°C° 0 mm 2 mps 762 mmHg 48%
11:00 +24°C° 0 mm 2 mps 762 mmHg 45%
12:00 +25°C° 0 mm 2 mps 762 mmHg 41%
13:00 +25°C° 0 mm 2 mps 761 mmHg 39%
14:00 +26°C° 0 mm 2 mps 761 mmHg 38%
15:00 +26°C° 0 mm 3 mps 761 mmHg 36%
16:00 +26°C° 0 mm 3 mps 761 mmHg 38%
17:00 +25°C° 0 mm 2 mps 761 mmHg 40%
18:00 +24°C° 0 mm 2 mps 762 mmHg 42%
19:00 +24°C° 0 mm 2 mps 762 mmHg 45%
20:00 +23°C° 0 mm 2 mps 762 mmHg 48%
21:00 +23°C° 0 mm 2 mps 763 mmHg 51%
22:00 +21°C° 0 mm 2 mps 763 mmHg 53%
23:00 +21°C° 0 mm 2 mps 763 mmHg 56%

29 September, Tuesday

Time Temperature Precipitation Wind Pressure Humidity
00:00 +22°C° 0 mm 1 mps 763 mmHg 58%
01:00 +22°C° 0 mm 1 mps 763 mmHg 60%
02:00 +21°C° 0 mm 1 mps 762 mmHg 61%
03:00 +21°C° 0 mm 1 mps 762 mmHg 62%
04:00 +21°C° 0 mm 1 mps 762 mmHg 63%
05:00 +21°C° 0 mm 1 mps 762 mmHg 63%
06:00 +21°C° 0 mm 1 mps 763 mmHg 64%
07:00 +22°C° 0 mm 1 mps 763 mmHg 61%
08:00 +23°C° 0 mm 1 mps 763 mmHg 58%
09:00 +23°C° 0 mm 1 mps 763 mmHg 54%
10:00 +24°C° 0 mm 2 mps 763 mmHg 49%
11:00 +25°C° 0 mm 2 mps 762 mmHg 44%
12:00 +26°C° 0 mm 3 mps 762 mmHg 39%
13:00 +26°C° 0 mm 3 mps 762 mmHg 40%
14:00 +26°C° 0 mm 4 mps 762 mmHg 40%
15:00 +26°C° 0 mm 4 mps 761 mmHg 41%
16:00 +25°C° 0 mm 4 mps 761 mmHg 45%
17:00 +25°C° 0 mm 4 mps 761 mmHg 49%
18:00 +23°C° 0 mm 4 mps 761 mmHg 53%
19:00 +22°C° 0 mm 3 mps 761 mmHg 55%
20:00 +22°C° 0 mm 3 mps 761 mmHg 57%
21:00 +23°C° 0 mm 2 mps 761 mmHg 58%
22:00 +21°C° 0 mm 2 mps 761 mmHg 59%
23:00 +21°C° 0 mm 2 mps 761 mmHg 60%
Show more